Regional Weather Roundup
Issued by NWS

Home | Current Version | Previous Version | Graphics & Text | Print | Product List | Glossary Off
Versions: 1 2 3 4 5 6 7 8 9 10 11 12 13 14 15 16 17 18 19 20 21 22 23 24 25 26 27 28 29 30 31 32 33 34 35 36 37 38 39 40 41 42 43 44 45 46 47 48 49 50

448
ASUS43 KTOP 181459
RWRKS

WEATHER ROUNDUP FOR KANSAS
NATIONAL WEATHER SERVICE GOODLAND KS
1000 AM CDT WED OCT 18 2017

NOTE:  "FAIR" INDICATES FEW OR NO CLOUDS BELOW 12,000 FEET WITH NO
SIGNIFICANT WEATHER AND/OR OBSTRUCTIONS TO VISIBILITY.

KSZ001>006-013>018-027>032-041>047-181600-
NORTHWEST KANSAS

CITY           SKY/WX    TMP DP  RH WIND       PRES   REMARKS
GOODLAND       CLOUDY    57  36  45 W8        30.04R
HAYS           CLOUDY    53  44  71 SW5       29.99R
HILL CITY      MOSUNNY   52  43  71 W5        29.98S
RUSSELL        SUNNY     54  47  77 SW13      29.97R
$$

KSZ061>065-074>080-084>089-181600-
SOUTHWEST KANSAS

CITY           SKY/WX    TMP DP  RH WIND       PRES   REMARKS
DODGE CITY     SUNNY     59  42  53 SW8       30.01R
ELKHART          N/A     56  37  49 W6          N/A
GARDEN CITY    CLOUDY    52  42  69 W5        30.03R
GREAT BEND     SUNNY     53  45  74 S7        30.00R
LIBERAL        SUNNY     56  41  57 N9        30.04R
$$

KSZ066>073-081>083-090>101-181600-
SOUTHEAST KANSAS

CITY           SKY/WX    TMP DP  RH WIND       PRES   REMARKS
CHANUTE        LGT RAIN  61  44  53 S21G31    30.10R
COFFEYVILLE    SUNNY     61  48  62 S14       30.11R
HUTCHINSON     SUNNY     58  47  66 S14       30.02R
MEDICINE LODGE   N/A     57  45  64 MISG      30.02R
NEWTON         SUNNY     59  45  59 S21       30.03R
PARSONS        SUNNY     60  45  57 S14G22    30.12S
WICHITA INTL   MOSUNNY   59  46  62 S15       30.04R
WICHITA JABRA  SUNNY     60  45  57 S17G25    30.04R
WICHITA MCCONL SUNNY     60  43  54 SW17      30.04R
WINFIELD       LGT RAIN  63  46  54 S15G26    30.07R
$$

KSZ007>012-019>026-033>040-048>060-102>105-181600-
NORTHEAST KANSAS

CITY           SKY/WX    TMP DP  RH WIND       PRES   REMARKS
CONCORDIA      SUNNY     57  47  69 SW12      29.98R
EMPORIA        SUNNY     56  44  64 S18G29    30.04R
LAWRENCE       SUNNY     60  46  59 S10G17    30.06S
MANHATTAN      MOSUNNY   60  47  61 S13G22    29.99F
OLATHE IND     SUNNY     58  46  64 S13       30.07S
OLATHE EXE     SUNNY     59  44  57 S14G25    30.07F
SALINA         SUNNY     59  48  67 S15       29.99S
TOPEKA BILLARD SUNNY     61  46  57 S12G20    30.03F
TOPEKA FORBES  SUNNY     62  46  55 S17G25    30.03S
$$




USA.gov is the U.S. government's official web portal to all federal, state and local government web resources and services.